Location: Emory University Observatory
(33.7903°N, 84.3267°W)
Time: 20:06:11
(UTC-04:00)

Envisat - Pass Details

Date: 11 October 2017
Orbit: 764 x 766 km, 98.2° (Epoch: 18 October)

Event Time Altitude Azimuth Distance (km) Brightness Sun altitude
Exits shadow 20:30:43 17° 43° (NE) 1,845 4.6 -18.0°
Drops below altitude 10° 20:32:43 10° 22° (NNE) 2,305 5.3 -18.4°
Sets 20:35:34 0° 6° (N) 3,235 6.2 -19.0°
